Flag for Denmark Weather past 2 weeks in Vejle, Denmark

Now
57 °F

Passing clouds.


Feels Like: 52 °F
Forecast: 39 / 50 °F
Wind: 24 mph from Southwest

Location: Billund Lufthavn


UV Index: 0 (Low)

Visibility: N/A


Pressure: 29.92 "Hg

Humidity: 48%

Dew point: 37 °F

Location of VejleLocation

Historic Weather in Vejle

°F

Vejle temperature yesterday

Maximum temperature yesterday: 55 °F (at 2:50 PM)
Minimum temperature yesterday: 27 °F (at 4:50 AM)
Average temperature yesterday: 43 °F

Past Weeks' High & Low Weather Summary

 TemperatureHumidityPressure
High55 °F (Apr 11, 4:20 PM)100% (Apr 5, 5:20 AM)30.45 "Hg (Apr 5, 5:20 AM)
Low27 °F (Apr 16, 4:50 AM)28% (Apr 16, 12:50 PM)29.53 "Hg (Apr 8, 6:50 AM)
Average45 °F79%29.94 "Hg
* Reported Apr 2 11:20 AM — Apr 17 11:20 AM, Vejle, Weather by CustomWeather, © 2014

Note: Actual official high and low records may vary slightly from our data, if they occured in-between our weather recording intervals... More about our weather records

Advertising

Historic Weather Conditions — Data for Previous 24 hours

 ConditionsComfort  
Time TempWeatherWind HumidityBarometerVisibility
11:20 AM
Apr 17
55 °FPassing clouds.18 mph51%29.98 "HgN/A
10:50 AM54 °FPassing clouds.20 mph51%30.01 "HgN/A
10:20 AM54 °FPassing clouds.14 mph58%30.01 "HgN/A
9:20 AM48 °FPassing clouds.14 mph66%30.04 "HgN/A
8:50 AM48 °FPassing clouds.14 mph66%30.04 "HgN/A
7:50 AM45 °FPassing clouds.9 mph71%30.09 "HgN/A
7:20 AM45 °FPassing clouds.9 mph71%30.09 "HgN/A
6:50 AM45 °FPassing clouds.9 mph66%30.09 "HgN/A
6:20 AM43 °FPassing clouds.8 mph66%30.12 "HgN/A
5:50 AM43 °FPassing clouds.7 mph66%30.12 "HgN/A
4:50 AM43 °FPassing clouds.7 mph66%30.18 "HgN/A
4:20 AM41 °FPassing clouds.6 mph70%30.18 "HgN/A
3:50 AM41 °FPassing clouds.6 mph70%30.21 "HgN/A
3:20 AM41 °FPassing clouds.6 mph76%30.21 "HgN/A
2:50 AM39 °FClear.5 mph87%30.24 "Hg10 mi
2:20 AM41 °FClear.6 mph81%30.24 "Hg10 mi
1:50 AM41 °FPassing clouds.6 mph87%30.27 "HgN/A
1:20 AM41 °FClear.6 mph87%30.27 "Hg10 mi
12:50 AM41 °FClear.3 mph87%30.30 "Hg10 mi
12:20 AM41 °FClear.3 mph81%30.30 "Hg10 mi
11:50 PM
Apr 16
41 °FClear.3 mph87%30.30 "Hg10 mi
11:20 PM41 °FClear.5 mph81%30.30 "Hg10 mi
10:50 PM41 °FClear.3 mph76%30.33 "Hg10 mi
10:20 PM43 °FClear.5 mph71%30.33 "Hg10 mi
9:50 PM43 °FClear.3 mph61%30.33 "Hg10 mi
9:20 PM45 °FSunny.2 mph53%30.36 "Hg10 mi
8:50 PM45 °FPassing clouds.6 mph49%30.36 "HgN/A
8:20 PM48 °FSunny.7 mph40%30.36 "Hg10 mi
7:50 PM48 °FPassing clouds.7 mph40%30.36 "HgN/A
6:50 PM50 °FSunny.9 mph32%30.36 "Hg10 mi
6:20 PM52 °FSunny.9 mph32%30.36 "Hg10 mi
5:50 PM55 °FPassing clouds.9 mph31%30.36 "HgN/A
5:20 PM55 °FPassing clouds.8 mph33%30.36 "HgN/A
4:50 PM55 °FPassing clouds.8 mph33%30.39 "HgN/A
4:20 PM55 °FPassing clouds.10 mph33%30.39 "HgN/A
3:50 PM55 °FPassing clouds.8 mph33%30.39 "HgN/A
3:20 PM55 °FPassing clouds.6 mph31%30.42 "HgN/A
2:50 PM55 °FPassing clouds.5 mph28%30.42 "HgN/A
2:20 PM54 °FSunny.5 mph30%30.42 "Hg10 mi
1:50 PM54 °FPassing clouds.5 mph28%30.42 "HgN/A
1:20 PM52 °FPassing clouds.5 mph30%30.42 "HgN/A
12:50 PM54 °FPassing clouds.6 mph28%30.42 "HgN/A
Weather by CustomWeather, © 2014

See weather overview